Location: Unspecified
(52.5090°N, 0.0000°E)
Time: 05:01:38
(UTC+00:00)

CZ-6A DEB - Visible Passes

Search period start: 04 April 2026 00:00
Search period end: 14 April 2026 00:00
Orbit: 679 x 814 km, 88.3° (Epoch: 28 March)

Date Brightness Start Highest point End Pass type
(mag) Time Alt. Az. Time Alt. Az. Time Alt. Az.
4 Apr ? 01:19:04 15° ESE 01:21:34 21° ENE 01:25:32 10° NNE visible
4 Apr ? 02:58:54 40° SSW 03:00:50 73° W 03:06:17 10° N visible
4 Apr ? 04:38:59 10° W 04:41:42 14° WNW 04:44:27 10° NW visible
5 Apr ? 00:38:03 10° E 00:39:30 11° ENE 00:40:57 10° NE visible
5 Apr ? 02:16:17 38° SE 02:18:10 59° E 02:23:31 10° N visible
5 Apr ? 03:56:05 19° WSW 03:58:25 26° WNW 04:02:54 10° NNW visible
6 Apr ? 01:33:39 23° ESE 01:35:44 31° ENE 01:40:26 10° NNE visible
6 Apr ? 03:13:28 34° SW 03:15:22 48° W 03:20:38 10° N visible
7 Apr ? 00:51:01 13° E 00:53:30 17° ENE 00:56:51 10° NNE visible
7 Apr ? 02:30:49 45° S 02:32:33 88° E 02:38:01 10° N visible
7 Apr ? 04:10:38 13° W 04:13:10 18° WNW 04:16:46 10° NNW visible
8 Apr ? 01:48:10 34° SE 01:49:57 46° E 01:55:07 10° N visible
8 Apr ? 03:27:59 25° WSW 03:29:57 32° WNW 03:34:49 10° NNW visible
9 Apr ? 01:05:30 20° ESE 01:07:34 25° ENE 01:11:53 10° NNE visible
9 Apr ? 02:45:18 42° SW 02:46:58 62° W 02:52:22 10° N visible
9 Apr ? 04:26:02 10° W 04:27:59 12° WNW 04:29:56 10° NW visible
10 Apr ? 00:22:55 10° E 00:25:23 13° ENE 00:27:51 10° NE visible
10 Apr ? 02:02:38 46° SSE 02:04:13 70° E 02:09:38 10° N visible
10 Apr ? 03:42:27 18° WSW 03:44:36 22° WNW 03:48:47 10° NNW visible
11 Apr ? 01:19:56 29° ESE 01:21:40 36° E 01:26:35 10° NNE visible
11 Apr ? 02:59:45 32° WSW 03:01:26 41° W 03:06:34 10° N visible
12 Apr ? 00:37:14 16° E 00:39:20 20° ENE 00:43:08 10° NNE visible
12 Apr ? 02:17:02 49° SSW 02:18:32 79° W 02:23:59 10° N visible
12 Apr ? 03:56:51 12° W 03:59:17 15° WNW 04:02:22 10° NNW visible
12 Apr ? 23:56:36 10° ENE 23:57:12 10° ENE 23:57:47 10° ENE visible
13 Apr ? 01:34:19 41° SE 01:35:49 54° E 01:41:06 10° N visible
13 Apr ? 03:14:07 23° WSW 03:15:58 28° WNW 03:20:35 10° NNW visible
